Notices

What's New in latest Release from April 7th, 2021:

- Updated Glossary, including Speed of Maximum Gust, and Total Hourly Precipitation

- Updated national and regional climate services offices contacts and prices information

- Addition of station inventory lists for 1981-2010, 1971-2000, and 1961-1990 Normals.

If you haven't already, please take our survey and provide feedback about our website: https://eccc.sondage-survey.ca/f/LanguageSelection.aspx?s=442ca660-fcf1-47c0-95a9-59707d6fd709

Hourly Data Report for December 24, 2019

EUREKA CLIMATE
NUNAVUT
Current Station Operator: ECCC - MSC

79°59'21.000" N
85°56'02.000" W
10.00 m
2401199
71613
NEK

Download Data

Hourly Data (December 2019)
Hourly Data Report for December 24, 2019
TIME
LST
Temp Definition
°C
Dew Point Definition
°C
Rel Hum Definition
%
Precip. Amount Definition
mm

Wind Dir Definition
10's deg

Wind Spd Definition
km/h
Visibility Definition
km
Stn Press Definition
kPa
Hmdx Definition


Wind Chill Definition


Weather Definition


00:00 -27.9 -30.5 79 0.0 12 7   101.49   -35 LegendNANA
01:00 -28.3 -30.9 78 0.0 11 9   101.50   -37 LegendNANA
02:00 -27.8 -30.4 79 0.0 12 6   101.52   -34 LegendNANA
03:00 -27.0 -29.4 80 0.0 14 4   101.54   -31 LegendNANA
04:00 -26.7 -29.1 80 0.0 13 6   101.54   -33 LegendNANA
05:00 -27.5 -30.2 78 0.0 11 5   101.57   -33 LegendNANA
06:00 -27.6 -30.1 79 0.0 5 3   101.61   -31 LegendNANA
07:00 -29.0 -31.5 79 0.0 2 14   101.60   -40 LegendNANA
08:00 -29.5 -32.2 77 0.0 2 15   101.61   -41 LegendNANA
09:00 -29.0 -31.7 77 0.0 5 7   101.65   -36 LegendNANA
10:00 -28.9 -31.3 79 0.0 5 8   101.69   -37 LegendNANA
11:00 -29.3 -31.9 78 0.0 9 8   101.71   -37 LegendNANA
12:00 -29.6 -32.3 77 0.0 12 6   101.72   -36 LegendNANA
13:00 -29.9 -32.5 77 0.0 6 7   101.75   -37 LegendNANA
14:00 -30.2 -33.1 76 0.0 9 3   101.77   -34 LegendNANA
15:00 -30.2 -33.0 77 0.0 7 6   101.78   -37 LegendNANA
16:00 -31.3 -34.3 75 0.0 12 5   101.80   -37 LegendNANA
17:00 -31.3 -34.2 75 0.2 8 5   101.81   -37 LegendNANA
18:00 -31.0 -33.9 76 0.0 11 1   101.80   -32 LegendNANA
19:00 -33.3 -36.5 73 0.0 15 3   101.78   -37 LegendNANA
20:00 -32.8 -35.9 74 0.0 12 5   101.80   -39 LegendNANA
21:00 -33.2 -36.4 73 0.0 10 5   101.80   -39 LegendNANA
22:00 -34.1 -37.4 72 0.0 11 8   101.80   -43 LegendNANA
23:00 -32.8 -35.9 73 0.0 11 5   101.79   -39 LegendNANA

Notes on Data Quality.

Legend

  • E = Estimated
  • M = Missing
  • NA = Not Available*
  • [empty] = Indicates an unobserved value
Date modified: